| time (UTC) | temp F | wind direction | speed MPH | gust MPH | rain 1hr in | rain 24hr in | rain mn in | humidity % | barometer mb |
| 20260901003105 | 56 | 162 | 1.0 | 3.0 | 0.00 | 0.00 | 0.00 | 77 | 1017.3 |
| 20260901002106 | 56 | 159 | 2.0 | 3.0 | 0.00 | 0.00 | 0.00 | 77 | 1017.2 |
| 20260901001105 | 56 | 147 | 1.0 | 3.0 | 0.00 | 0.00 | 0.00 | 78 | 1017.1 |
| 20260901000605 | 56 | 157 | 0.0 | 3.0 | 0.00 | 0.00 | 0.00 | 78 | 1017.1 |
| 20260901000105 | 56 | 163 | 2.0 | 5.0 | 0.00 | 0.00 | 0.00 | 78 | 1017.1 |
| 20260831235605 | 56 | 161 | 4.0 | 7.0 | 0.00 | 0.00 | 0.00 | 78 | 1017.1 |
| 20260831235105 | 56 | 151 | 1.0 | 3.0 | 0.00 | 0.00 | 0.00 | 79 | 1017.1 |
| 20260831234605 | 56 | 154 | 1.0 | 2.0 | 0.00 | 0.00 | 0.00 | 80 | 1017.1 |
| 20260831234105 | 56 | 165 | 1.0 | 5.0 | 0.00 | 0.00 | 0.00 | 80 | 1017.1 |
| 20260831233605 | 56 | 163 | 3.0 | 6.0 | 0.00 | 0.00 | 0.00 | 80 | 1017.0 |
| 20260831233105 | 56 | 167 | 1.0 | 3.0 | 0.00 | 0.00 | 0.00 | 81 | 1017.1 |
| 20260831232605 | 56 | 169 | 0.0 | 0.0 | 0.00 | 0.00 | 0.00 | 82 | 1017.1 |
| 20260831232105 | 56 | 167 | 0.0 | 3.0 | 0.00 | 0.00 | 0.00 | 82 | 1017.0 |
| 20260831231106 | 56 | 160 | 5.0 | 6.0 | 0.00 | 0.00 | 0.00 | 82 | 1016.8 |
| 20260831230606 | 56 | 206 | 2.0 | 3.0 | 0.00 | 0.00 | 0.00 | 84 | 1016.7 |
| 20260831230105 | 56 | 306 | 2.0 | 5.0 | 0.00 | 0.00 | 0.00 | 84 | 1016.6 |
| 20260831225605 | 56 | 291 | 1.0 | 3.0 | 0.00 | 0.00 | 0.00 | 84 | 1016.6 |
| 20260831225105 | 56 | 310 | 2.0 | 3.0 | 0.00 | 0.00 | 0.00 | 84 | 1016.6 |
| 20260831224606 | 56 | 230 | 2.0 | 3.0 | 0.00 | 0.00 | 0.00 | 84 | 1016.5 |
| 20260831224105 | 57 | 272 | 2.0 | 3.0 | 0.00 | 0.00 | 0.00 | 84 | 1016.6 |
| 20260831223605 | 57 | 285 | 2.0 | 3.0 | 0.00 | 0.00 | 0.00 | 84 | 1016.6 |
| 20260831222605 | 57 | 219 | 5.0 | 7.0 | 0.00 | 0.00 | 0.00 | 83 | 1016.5 |
| 20260831222105 | 56 | 191 | 5.0 | 8.0 | 0.00 | 0.00 | 0.00 | 83 | 1016.4 |
| 20260831221606 | 56 | 198 | 6.0 | 8.0 | 0.00 | 0.00 | 0.00 | 82 | 1016.4 |
| 20260831221105 | 56 | 204 | 4.0 | 6.0 | 0.00 | 0.00 | 0.00 | 81 | 1016.4 |
| 20260831220605 | 56 | 10 | 5.0 | 7.0 | 0.00 | 0.00 | 0.00 | 80 | 1016.4 |
| 20260831215105 | 56 | 136 | 5.0 | 7.0 | 0.00 | 0.00 | 0.00 | 80 | 1016.3 |
| 20260831214605 | 56 | 153 | 4.0 | 7.0 | 0.00 | 0.00 | 0.00 | 80 | 1016.3 |
| 20260831214105 | 56 | 114 | 5.0 | 8.0 | 0.00 | 0.00 | 0.00 | 81 | 1016.3 |
| 20260831213605 | 57 | 141 | 4.0 | 8.0 | 0.00 | 0.00 | 0.00 | 81 | 1016.3 |
| 20260831213105 | 57 | 162 | 5.0 | 9.0 | 0.00 | 0.00 | 0.00 | 83 | 1016.2 |
| 20260831212604 | 57 | 178 | 5.0 | 7.0 | 0.00 | 0.00 | 0.00 | 84 | 1016.2 |
| 20260831212105 | 57 | 184 | 5.0 | 12.0 | 0.00 | 0.00 | 0.00 | 84 | 1016.2 |
| 20260831211605 | 57 | 143 | 5.0 | 12.0 | 0.00 | 0.00 | 0.00 | 84 | 1016.1 |
| 20260831210605 | 57 | 164 | 4.0 | 7.0 | 0.00 | 0.00 | 0.00 | 82 | 1016.1 |
| 20260831210105 | 57 | 145 | 5.0 | 9.0 | 0.00 | 0.00 | 0.00 | 84 | 1016.0 |
| 20260831205605 | 57 | 138 | 7.0 | 10.0 | 0.00 | 0.00 | 0.00 | 84 | 1015.9 |
| 20260831204605 | 57 | 220 | 4.0 | 7.0 | 0.00 | 0.00 | 0.00 | 84 | 1015.8 |
| 20260831204105 | 57 | 125 | 6.0 | 8.0 | 0.00 | 0.00 | 0.00 | 84 | 1015.6 |
| 20260831203105 | 57 | 173 | 3.0 | 10.0 | 0.00 | 0.00 | 0.00 | 84 | 1015.5 |
| 20260831202605 | 57 | 148 | 5.0 | 10.0 | 0.00 | 0.00 | 0.00 | 84 | 1015.5 |
| 20260831202105 | 57 | 221 | 5.0 | 9.0 | 0.00 | 0.00 | 0.00 | 85 | 1015.4 |
| 20260831201605 | 57 | 324 | 5.0 | 8.0 | 0.00 | 0.00 | 0.00 | 85 | 1015.3 |
| 20260831201105 | 57 | 304 | 4.0 | 8.0 | 0.00 | 0.00 | 0.00 | 86 | 1015.3 |
| 20260831200605 | 57 | 266 | 6.0 | 12.0 | 0.00 | 0.00 | 0.00 | 86 | 1015.3 |
| 20260831200105 | 57 | 190 | 7.0 | 12.0 | 0.00 | 0.00 | 0.00 | 86 | 1015.4 |
| 20260831195605 | 57 | 141 | 5.0 | 9.0 | 0.00 | 0.00 | 0.00 | 85 | 1015.4 |
| 20260831195104 | 57 | 221 | 6.0 | 9.0 | 0.00 | 0.00 | 0.00 | 85 | 1015.3 |
| 20260831194105 | 57 | 212 | 7.0 | 12.0 | 0.00 | 0.00 | 0.00 | 85 | 1015.0 |
| 20260831193105 | 57 | 176 | 7.0 | 12.0 | 0.00 | 0.00 | 0.00 | 85 | 1015.0 |
| 20260831192605 | 57 | 276 | 6.0 | 10.0 | 0.00 | 0.00 | 0.00 | 85 | 1015.1 |
| 20260831192104 | 57 | 277 | 6.0 | 12.0 | 0.00 | 0.00 | 0.00 | 85 | 1015.0 |
| 20260831191605 | 57 | 331 | 6.0 | 12.0 | 0.00 | 0.00 | 0.00 | 85 | 1014.9 |
| 20260831191104 | 57 | 200 | 6.0 | 14.0 | 0.00 | 0.00 | 0.00 | 85 | 1014.9 |
| 20260831190605 | 57 | 136 | 6.0 | 12.0 | 0.00 | 0.00 | 0.00 | 85 | 1014.8 |
| 20260831190104 | 57 | 200 | 7.0 | 12.0 | 0.00 | 0.00 | 0.00 | 85 | 1014.7 |
| 20260831185605 | 57 | 329 | 6.0 | 12.0 | 0.00 | 0.00 | 0.00 | 86 | 1014.7 |
| 20260831184605 | 57 | 176 | 6.0 | 10.0 | 0.00 | 0.00 | 0.00 | 86 | 1014.5 |
| 20260831184105 | 57 | 315 | 6.0 | 10.0 | 0.00 | 0.00 | 0.00 | 86 | 1014.4 |
| 20260831183604 | 57 | 228 | 7.0 | 12.0 | 0.00 | 0.00 | 0.00 | 86 | 1014.4 |
| 20260831183107 | 57 | 329 | 7.0 | 12.0 | 0.00 | 0.00 | 0.00 | 86 | 1014.4 |
| 20260831182605 | 57 | 259 | 7.0 | 12.0 | 0.00 | 0.00 | 0.00 | 86 | 1014.4 |
| 20260831182104 | 57 | 281 | 5.0 | 9.0 | 0.00 | 0.00 | 0.00 | 86 | 1014.5 |
| 20260831181604 | 57 | 217 | 5.0 | 12.0 | 0.00 | 0.00 | 0.00 | 86 | 1014.5 |
| 20260831181105 | 57 | 288 | 6.0 | 9.0 | 0.00 | 0.00 | 0.00 | 86 | 1014.5 |
| 20260831180604 | 57 | 247 | 6.0 | 10.0 | 0.00 | 0.00 | 0.00 | 86 | 1014.6 |
| 20260831180104 | 58 | 4 | 5.0 | 9.0 | 0.00 | 0.00 | 0.00 | 86 | 1014.5 |
| 20260831175605 | 58 | 318 | 5.0 | 10.0 | 0.00 | 0.00 | 0.00 | 86 | 1014.5 |
| 20260831175105 | 58 | 196 | 6.0 | 12.0 | 0.00 | 0.00 | 0.00 | 86 | 1014.5 |
| 20260831174605 | 58 | 206 | 6.0 | 13.0 | 0.00 | 0.00 | 0.00 | 86 | 1014.5 |
| 20260831174105 | 58 | 125 | 10.0 | 16.0 | 0.00 | 0.00 | 0.00 | 86 | 1014.5 |
| 20260831173604 | 58 | 149 | 7.0 | 14.0 | 0.00 | 0.00 | 0.00 | 86 | 1014.5 |
| 20260831173104 | 58 | 232 | 6.0 | 12.0 | 0.00 | 0.00 | 0.00 | 86 | 1014.6 |
| 20260831172604 | 59 | 156 | 5.0 | 8.0 | 0.00 | 0.00 | 0.00 | 86 | 1014.6 |
| 20260831172104 | 59 | 172 | 7.0 | 15.0 | 0.00 | 0.00 | 0.00 | 86 | 1014.6 |
| 20260831171104 | 59 | 126 | 7.0 | 10.0 | 0.00 | 0.00 | 0.00 | 86 | 1014.8 |
| 20260831170604 | 59 | 141 | 9.0 | 13.0 | 0.00 | 0.00 | 0.00 | 86 | 1014.9 |
| 20260831170105 | 59 | 145 | 9.0 | 14.0 | 0.00 | 0.00 | 0.00 | 86 | 1014.9 |
| 20260831165105 | 59 | 178 | 6.0 | 8.0 | 0.00 | 0.00 | 0.00 | 86 | 1014.9 |
| 20260831164605 | 59 | 164 | 6.0 | 10.0 | 0.00 | 0.00 | 0.00 | 86 | 1014.9 |
| 20260831164105 | 59 | 248 | 4.0 | 8.0 | 0.00 | 0.00 | 0.00 | 86 | 1015.1 |
| 20260831163605 | 59 | 164 | 5.0 | 9.0 | 0.00 | 0.00 | 0.00 | 86 | 1015.1 |
| 20260831163104 | 59 | 141 | 6.0 | 12.0 | 0.00 | 0.00 | 0.00 | 86 | 1015.1 |
| 20260831162604 | 59 | 125 | 6.0 | 9.0 | 0.00 | 0.00 | 0.00 | 86 | 1015.1 |
| 20260831162104 | 59 | 158 | 6.0 | 12.0 | 0.00 | 0.00 | 0.00 | 86 | 1015.1 |
| 20260831161604 | 60 | 155 | 6.0 | 10.0 | 0.00 | 0.00 | 0.00 | 86 | 1015.1 |
| 20260831161105 | 60 | 15 | 5.0 | 9.0 | 0.00 | 0.00 | 0.00 | 86 | 1015.1 |
| 20260831160605 | 60 | 167 | 3.0 | 7.0 | 0.00 | 0.00 | 0.00 | 86 | 1015.1 |
| 20260831155604 | 60 | 18 | 5.0 | 9.0 | 0.00 | 0.00 | 0.00 | 86 | 1015.3 |
| 20260831155105 | 60 | 154 | 6.0 | 10.0 | 0.00 | 0.00 | 0.00 | 85 | 1015.2 |
| 20260831154605 | 60 | 136 | 6.0 | 9.0 | 0.00 | 0.00 | 0.00 | 85 | 1015.1 |
| 20260831154105 | 61 | 154 | 5.0 | 10.0 | 0.00 | 0.00 | 0.00 | 86 | 1015.2 |
| 20260831153105 | 60 | 195 | 2.0 | 6.0 | 0.00 | 0.00 | 0.00 | 86 | 1015.3 |
| 20260831152604 | 60 | 204 | 5.0 | 9.0 | 0.00 | 0.00 | 0.00 | 86 | 1015.2 |
| 20260831152104 | 61 | 137 | 5.0 | 8.0 | 0.00 | 0.00 | 0.00 | 85 | 1015.2 |
| 20260831151604 | 61 | 158 | 5.0 | 8.0 | 0.00 | 0.00 | 0.00 | 85 | 1015.2 |
| 20260831151105 | 61 | 211 | 4.0 | 9.0 | 0.00 | 0.00 | 0.00 | 84 | 1015.2 |
| 20260831150604 | 61 | 165 | 5.0 | 12.0 | 0.00 | 0.00 | 0.00 | 86 | 1015.3 |
| 20260831150105 | 61 | 168 | 4.0 | 7.0 | 0.00 | 0.00 | 0.00 | 85 | 1015.3 |
| 20260831145604 | 61 | 173 | 5.0 | 9.0 | 0.00 | 0.00 | 0.00 | 85 | 1015.3 |
| 20260831145104 | 61 | 144 | 6.0 | 10.0 | 0.00 | 0.00 | 0.00 | 85 | 1015.4 |
| 20260831144607 | 61 | 122 | 6.0 | 12.0 | 0.00 | 0.00 | 0.00 | 85 | 1015.3 |
| 20260831144105 | 61 | 133 | 5.0 | 12.0 | 0.00 | 0.00 | 0.00 | 85 | 1015.4 |
| 20260831143604 | 61 | 175 | 5.0 | 8.0 | 0.00 | 0.00 | 0.00 | 84 | 1015.3 |
| 20260831143105 | 62 | 350 | 4.0 | 9.0 | 0.00 | 0.00 | 0.00 | 85 | 1015.4 |
| 20260831142604 | 62 | 175 | 3.0 | 9.0 | 0.00 | 0.00 | 0.00 | 85 | 1015.3 |
| 20260831142105 | 61 | 164 | 3.0 | 9.0 | 0.00 | 0.00 | 0.00 | 85 | 1015.3 |
| 20260831141605 | 61 | 182 | 4.0 | 8.0 | 0.00 | 0.00 | 0.00 | 83 | 1015.3 |
| 20260831140604 | 63 | 147 | 4.0 | 8.0 | 0.00 | 0.00 | 0.00 | 81 | 1015.4 |
| 20260831140105 | 63 | 165 | 5.0 | 9.0 | 0.00 | 0.00 | 0.00 | 80 | 1015.4 |
| 20260831135604 | 63 | 171 | 4.0 | 9.0 | 0.00 | 0.00 | 0.00 | 81 | 1015.3 |
| 20260831134605 | 63 | 142 | 5.0 | 8.0 | 0.00 | 0.00 | 0.00 | 78 | 1015.3 |
| 20260831133604 | 62 | 8 | 5.0 | 9.0 | 0.00 | 0.00 | 0.00 | 81 | 1015.5 |
| 20260831133104 | 62 | 146 | 6.0 | 9.0 | 0.00 | 0.00 | 0.00 | 78 | 1015.5 |
| 20260831132604 | 62 | 164 | 5.0 | 10.0 | 0.00 | 0.00 | 0.00 | 81 | 1015.4 |
| 20260831132105 | 62 | 151 | 6.0 | 10.0 | 0.00 | 0.00 | 0.00 | 80 | 1015.4 |
| 20260831131605 | 62 | 197 | 6.0 | 8.0 | 0.00 | 0.00 | 0.00 | 81 | 1015.4 |
| 20260831131104 | 62 | 152 | 4.0 | 7.0 | 0.00 | 0.00 | 0.00 | 82 | 1015.5 |
| 20260831130604 | 62 | 22 | 5.0 | 6.0 | 0.00 | 0.00 | 0.00 | 81 | 1015.5 |
| 20260831125604 | 62 | 144 | 4.0 | 9.0 | 0.00 | 0.00 | 0.00 | 84 | 1015.6 |
| 20260831125104 | 63 | 131 | 7.0 | 9.0 | 0.00 | 0.00 | 0.00 | 81 | 1015.6 |
| 20260831124604 | 64 | 135 | 3.0 | 7.0 | 0.00 | 0.00 | 0.00 | 81 | 1015.6 |
| 20260831124104 | 63 | 135 | 2.0 | 6.0 | 0.00 | 0.00 | 0.00 | 84 | 1015.6 |
| 20260831123104 | 62 | 131 | 3.0 | 10.0 | 0.00 | 0.00 | 0.00 | 84 | 1015.7 |
| 20260831122604 | 61 | 142 | 4.0 | 8.0 | 0.00 | 0.00 | 0.00 | 84 | 1015.7 |
| 20260831122104 | 61 | 151 | 4.0 | 8.0 | 0.00 | 0.00 | 0.00 | 84 | 1015.7 |
| 20260831121104 | 61 | 150 | 6.0 | 8.0 | 0.00 | 0.00 | 0.00 | 83 | 1015.6 |
| 20260831120105 | 61 | 138 | 5.0 | 8.0 | 0.00 | 0.00 | 0.00 | 84 | 1015.6 |
| 20260831115605 | 61 | 137 | 4.0 | 9.0 | 0.00 | 0.00 | 0.00 | 84 | 1015.6 |
| 20260831115104 | 62 | 4 | 4.0 | 7.0 | 0.00 | 0.00 | 0.00 | 83 | 1015.6 |
| 20260831114606 | 62 | 167 | 3.0 | 5.0 | 0.00 | 0.00 | 0.00 | 83 | 1015.6 |
| 20260831114104 | 61 | 184 | 3.0 | 5.0 | 0.00 | 0.00 | 0.00 | 83 | 1015.7 |
| 20260831113604 | 61 | 127 | 3.0 | 8.0 | 0.00 | 0.00 | 0.00 | 84 | 1015.6 |
| 20260831113104 | 62 | 139 | 5.0 | 10.0 | 0.00 | 0.00 | 0.00 | 82 | 1015.6 |
| 20260831112104 | 62 | 134 | 3.0 | 7.0 | 0.00 | 0.00 | 0.00 | 83 | 1015.6 |
| 20260831111604 | 63 | 136 | 5.0 | 8.0 | 0.00 | 0.00 | 0.00 | 83 | 1015.5 |
| 20260831111104 | 63 | 131 | 5.0 | 8.0 | 0.00 | 0.00 | 0.00 | 81 | 1015.4 |
| 20260831110104 | 63 | 120 | 5.0 | 10.0 | 0.00 | 0.00 | 0.00 | 81 | 1015.4 |
| 20260831105604 | 63 | 143 | 4.0 | 9.0 | 0.00 | 0.00 | 0.00 | 81 | 1015.4 |
| 20260831105104 | 63 | 136 | 5.0 | 7.0 | 0.00 | 0.00 | 0.00 | 79 | 1015.4 |
| 20260831104604 | 64 | 143 | 3.0 | 7.0 | 0.00 | 0.00 | 0.00 | 77 | 1015.4 |
| 20260831104104 | 65 | 150 | 3.0 | 7.0 | 0.00 | 0.00 | 0.00 | 78 | 1015.4 |
| 20260831103604 | 65 | 6 | 4.0 | 7.0 | 0.00 | 0.00 | 0.00 | 77 | 1015.4 |
| 20260831103104 | 65 | 128 | 4.0 | 10.0 | 0.00 | 0.00 | 0.00 | 76 | 1015.4 |
| 20260831102606 | 65 | 106 | 2.0 | 7.0 | 0.00 | 0.00 | 0.00 | 75 | 1015.4 |
| 20260831102106 | 65 | 131 | 4.0 | 7.0 | 0.00 | 0.00 | 0.00 | 75 | 1015.5 |
| 20260831101105 | 65 | 109 | 3.0 | 7.0 | 0.00 | 0.00 | 0.00 | 77 | 1015.5 |
| 20260831100106 | 64 | 135 | 3.0 | 8.0 | 0.00 | 0.00 | 0.00 | 76 | 1015.6 |
| 20260831095106 | 64 | 130 | 2.0 | 8.0 | 0.00 | 0.00 | 0.00 | 78 | 1015.6 |
| 20260831094606 | 64 | 115 | 5.0 | 9.0 | 0.00 | 0.00 | 0.00 | 76 | 1015.6 |
| 20260831094106 | 64 | 103 | 3.0 | 9.0 | 0.00 | 0.00 | 0.00 | 77 | 1015.7 |
| 20260831093606 | 65 | 127 | 3.0 | 7.0 | 0.00 | 0.00 | 0.00 | 79 | 1015.7 |
| 20260831093106 | 65 | 130 | 3.0 | 9.0 | 0.00 | 0.00 | 0.00 | 76 | 1015.7 |
| 20260831092605 | 65 | 155 | 3.0 | 6.0 | 0.00 | 0.00 | 0.00 | 74 | 1015.7 |
| 20260831092106 | 65 | 137 | 2.0 | 8.0 | 0.00 | 0.00 | 0.00 | 78 | 1015.7 |
| 20260831091606 | 65 | 146 | 3.0 | 7.0 | 0.00 | 0.00 | 0.00 | 79 | 1015.7 |
| 20260831091106 | 65 | 129 | 3.0 | 8.0 | 0.00 | 0.00 | 0.00 | 78 | 1015.7 |
| 20260831090606 | 64 | 153 | 2.0 | 5.0 | 0.00 | 0.00 | 0.00 | 80 | 1015.7 |
| 20260831090106 | 63 | 136 | 3.0 | 7.0 | 0.00 | 0.00 | 0.00 | 79 | 1015.7 |
| 20260831085605 | 63 | 149 | 2.0 | 3.0 | 0.00 | 0.00 | 0.00 | 81 | 1015.8 |
| 20260831085106 | 64 | 148 | 4.0 | 6.0 | 0.00 | 0.00 | 0.00 | 77 | 1015.6 |
| 20260831084606 | 65 | 147 | 3.0 | 6.0 | 0.00 | 0.00 | 0.00 | 75 | 1015.7 |
| 20260831084106 | 66 | 152 | 1.0 | 3.0 | 0.00 | 0.00 | 0.00 | 75 | 1015.6 |
| 20260831083606 | 67 | 146 | 2.0 | 3.0 | 0.00 | 0.00 | 0.00 | 76 | 1015.6 |
| 20260831083106 | 66 | 130 | 2.0 | 3.0 | 0.00 | 0.00 | 0.00 | 78 | 1015.6 |
| 20260831082606 | 65 | 130 | 3.0 | 6.0 | 0.00 | 0.00 | 0.00 | 77 | 1015.5 |
| 20260831082106 | 65 | 163 | 3.0 | 6.0 | 0.00 | 0.00 | 0.00 | 77 | 1015.5 |
| 20260831081605 | 65 | 166 | 2.0 | 5.0 | 0.00 | 0.00 | 0.00 | 76 | 1015.5 |
| 20260831081105 | 65 | 161 | 1.0 | 6.0 | 0.00 | 0.00 | 0.00 | 76 | 1015.5 |
| 20260831080605 | 65 | 159 | 2.0 | 5.0 | 0.00 | 0.00 | 0.00 | 75 | 1015.5 |
| 20260831080106 | 65 | 163 | 1.0 | 3.0 | 0.00 | 0.00 | 0.00 | 78 | 1015.5 |
| 20260831075105 | 63 | 154 | 3.0 | 6.0 | 0.00 | 0.00 | 0.00 | 79 | 1015.5 |
| 20260831074605 | 63 | 151 | 3.0 | 5.0 | 0.00 | 0.00 | 0.00 | 77 | 1015.5 |
| 20260831074106 | 63 | 2 | 3.0 | 7.0 | 0.00 | 0.00 | 0.00 | 78 | 1015.4 |
| 20260831073105 | 63 | 18 | 2.0 | 5.0 | 0.00 | 0.00 | 0.00 | 76 | 1015.4 |
| 20260831072606 | 64 | 169 | 2.0 | 6.0 | 0.00 | 0.00 | 0.00 | 73 | 1015.4 |
| 20260831072106 | 64 | 213 | 1.0 | 3.0 | 0.00 | 0.00 | 0.00 | 71 | 1015.4 |
| 20260831071605 | 63 | 208 | 2.0 | 3.0 | 0.00 | 0.00 | 0.00 | 72 | 1015.4 |
| 20260831071106 | 62 | 205 | 1.0 | 3.0 | 0.00 | 0.00 | 0.00 | 74 | 1015.3 |
| 20260831070606 | 62 | 209 | 2.0 | 3.0 | 0.00 | 0.00 | 0.00 | 74 | 1015.3 |
| 20260831070106 | 62 | 188 | 2.0 | 3.0 | 0.00 | 0.00 | 0.00 | 76 | 1015.3 |
| 20260831065605 | 63 | 164 | 2.0 | 3.0 | 0.00 | 0.00 | 0.00 | 73 | 1015.3 |
| 20260831065106 | 64 | 137 | 2.0 | 3.0 | 0.00 | 0.00 | 0.00 | 70 | 1015.3 |
| 20260831064606 | 64 | 120 | 0.0 | 2.0 | 0.00 | 0.00 | 0.00 | 70 | 1015.3 |
| 20260831064106 | 64 | 111 | 1.0 | 3.0 | 0.00 | 0.00 | 0.00 | 72 | 1015.3 |
| 20260831063605 | 64 | 102 | 0.0 | 3.0 | 0.00 | 0.00 | 0.00 | 71 | 1015.4 |
| 20260831063106 | 63 | 101 | 0.0 | 2.0 | 0.00 | 0.00 | 0.00 | 65 | 1015.4 |
| 20260831062605 | 63 | 97 | 1.0 | 3.0 | 0.00 | 0.00 | 0.00 | 68 | 1015.4 |
| 20260831062106 | 64 | 38 | 2.0 | 3.0 | 0.00 | 0.00 | 0.00 | 65 | 1015.3 |
| 20260831061106 | 63 | 358 | 0.0 | 1.0 | 0.00 | 0.00 | 0.00 | 69 | 1015.5 |
| 20260831060606 | 63 | 358 | 0.0 | 1.0 | 0.00 | 0.00 | 0.00 | 67 | 1015.4 |
| 20260831060105 | 63 | 358 | 1.0 | 2.0 | 0.00 | 0.00 | 0.00 | 66 | 1015.4 |
| 20260831055606 | 64 | 352 | 1.0 | 3.0 | 0.00 | 0.00 | 0.00 | 69 | 1015.3 |
| 20260831055105 | 63 | 353 | 0.0 | 3.0 | 0.00 | 0.00 | 0.00 | 68 | 1015.4 |
| 20260831054606 | 63 | 355 | 0.0 | 2.0 | 0.00 | 0.00 | 0.00 | 72 | 1015.4 |
| 20260831054106 | 62 | 354 | 0.0 | 2.0 | 0.00 | 0.00 | 0.00 | 73 | 1015.5 |
| 20260831053605 | 61 | 357 | 0.0 | 1.0 | 0.00 | 0.00 | 0.00 | 74 | 1015.5 |
| 20260831053106 | 60 | 350 | 0.0 | 1.0 | 0.00 | 0.00 | 0.00 | 75 | 1015.6 |
| 20260831052606 | 59 | 355 | 0.0 | 1.0 | 0.00 | 0.00 | 0.00 | 76 | 1015.6 |
| 20260831051605 | 57 | 356 | 1.0 | 2.0 | 0.00 | 0.00 | 0.00 | 76 | 1015.5 |
| 20260831050106 | 55 | 0 | 0.0 | 2.0 | 0.00 | 0.00 | 0.00 | 77 | 1015.4 |
| 20260831045106 | 54 | 0 | 0.0 | 1.0 | 0.00 | 0.00 | 0.00 | 83 | 1015.3 |
| 20260831044606 | 54 | 357 | 0.0 | 0.0 | 0.00 | 0.00 | 0.00 | 83 | 1015.3 |
| 20260831044106 | 54 | 0 | 0.0 | 0.0 | 0.00 | 0.00 | 0.00 | 82 | 1015.4 |
| 20260831043106 | 54 | 358 | 0.0 | 0.0 | 0.00 | 0.00 | 0.00 | 83 | 1015.3 |
| 20260831042606 | 54 | 357 | 0.0 | 0.0 | 0.00 | 0.00 | 0.00 | 83 | 1015.3 |
| 20260831042106 | 54 | 0 | 0.0 | 0.0 | 0.00 | 0.00 | 0.00 | 83 | 1015.3 |
| 20260831041606 | 54 | 0 | 0.0 | 2.0 | 0.00 | 0.00 | 0.00 | 83 | 1015.4 |
| 20260831041106 | 54 | 0 | 1.0 | 2.0 | 0.00 | 0.00 | 0.00 | 83 | 1015.4 |
| 20260831040605 | 54 | 0 | 0.0 | 0.0 | 0.00 | 0.00 | 0.00 | 83 | 1015.4 |
| 20260831040106 | 54 | 0 | 1.0 | 1.0 | 0.00 | 0.00 | 0.00 | 83 | 1015.5 |
| 20260831035605 | 54 | 0 | 0.0 | 1.0 | 0.00 | 0.00 | 0.00 | 84 | 1015.5 |
| 20260831035105 | 54 | 0 | 1.0 | 2.0 | 0.00 | 0.00 | 0.00 | 84 | 1015.5 |
| 20260831034605 | 54 | 0 | 1.0 | 3.0 | 0.00 | 0.00 | 0.00 | 82 | 1015.6 |
| 20260831034105 | 54 | 0 | 1.0 | 2.0 | 0.00 | 0.00 | 0.00 | 81 | 1015.8 |
| 20260831032606 | 54 | 0 | 0.0 | 2.0 | 0.00 | 0.00 | 0.00 | 80 | 1015.9 |
| 20260831032105 | 54 | 359 | 1.0 | 2.0 | 0.00 | 0.00 | 0.00 | 80 | 1016.0 |
| 20260831031606 | 54 | 0 | 1.0 | 2.0 | 0.00 | 0.00 | 0.00 | 82 | 1016.0 |
| 20260831030605 | 54 | 0 | 0.0 | 2.0 | 0.00 | 0.00 | 0.00 | 79 | 1016.1 |
| 20260831030106 | 54 | 357 | 1.0 | 2.0 | 0.00 | 0.00 | 0.00 | 77 | 1016.1 |
| 20260831025606 | 54 | 359 | 1.0 | 2.0 | 0.00 | 0.00 | 0.00 | 75 | 1016.0 |
| 20260831024605 | 55 | 0 | 0.0 | 0.0 | 0.00 | 0.00 | 0.00 | 72 | 1016.1 |
| 20260831024106 | 55 | 0 | 0.0 | 0.0 | 0.00 | 0.00 | 0.00 | 72 | 1016.1 |
| 20260831023605 | 55 | 358 | 0.0 | 0.0 | 0.00 | 0.00 | 0.00 | 72 | 1016.0 |
| 20260831023106 | 55 | 0 | 0.0 | 0.0 | 0.00 | 0.00 | 0.00 | 72 | 1016.0 |
| 20260831022106 | 56 | 358 | 0.0 | 0.0 | 0.00 | 0.00 | 0.00 | 70 | 1016.0 |
| 20260831021606 | 56 | 0 | 0.0 | 1.0 | 0.00 | 0.00 | 0.00 | 72 | 1016.0 |
| 20260831021105 | 56 | 0 | 0.0 | 1.0 | 0.00 | 0.00 | 0.00 | 74 | 1016.0 |
| 20260831020606 | 56 | 0 | 1.0 | 2.0 | 0.00 | 0.00 | 0.00 | 76 | 1016.0 |
| 20260831020105 | 56 | 357 | 0.0 | 0.0 | 0.00 | 0.00 | 0.00 | 71 | 1016.0 |
| 20260831015606 | 56 | 356 | 0.0 | 1.0 | 0.00 | 0.00 | 0.00 | 74 | 1016.0 |
| 20260831015105 | 56 | 0 | 1.0 | 2.0 | 0.00 | 0.00 | 0.00 | 76 | 1016.0 |
| 20260831014605 | 56 | 359 | 2.0 | 3.0 | 0.00 | 0.00 | 0.00 | 77 | 1016.0 |
| 20260831014105 | 56 | 359 | 2.0 | 3.0 | 0.00 | 0.00 | 0.00 | 76 | 1016.0 |
| 20260831013605 | 56 | 0 | 2.0 | 2.0 | 0.00 | 0.00 | 0.00 | 76 | 1016.1 |
| 20260831013105 | 56 | 0 | 2.0 | 3.0 | 0.00 | 0.00 | 0.00 | 77 | 1016.2 |
| 20260831012606 | 56 | 359 | 2.0 | 3.0 | 0.00 | 0.00 | 0.00 | 77 | 1016.2 |
| 20260831012105 | 56 | 355 | 2.0 | 3.0 | 0.00 | 0.00 | 0.00 | 77 | 1016.3 |
| 20260831011105 | 56 | 0 | 3.0 | 3.0 | 0.00 | 0.00 | 0.00 | 80 | 1016.3 |
| 20260831010605 | 56 | 0 | 3.0 | 3.0 | 0.00 | 0.00 | 0.00 | 82 | 1016.4 |
| 20260831010105 | 56 | 358 | 4.0 | 5.0 | 0.00 | 0.00 | 0.00 | 83 | 1016.3 |
| 20260831005606 | 56 | 356 | 5.0 | 6.0 | 0.00 | 0.00 | 0.00 | 83 | 1016.3 |
| 20260831004606 | 56 | 32 | 5.0 | 6.0 | 0.00 | 0.00 | 0.00 | 82 | 1016.3 |
| 20260831004105 | 56 | 34 | 5.0 | 6.0 | 0.00 | 0.00 | 0.00 | 81 | 1016.3 |